When you browse on this site, cookies collect data to enhance your experience and personalize the content and advertising you see.
Visit our Privacy Policy to learn more. By continuing to use the site, you agree to this use of cookies and data.
  • In Austria
  • List of Countries
  • For 7 days
  • Water Temperature
  • Weather Map
  • News
  • Weather Widgets
  • user-avatar
    Login

    Hourly Weather Trostyanec

    Today, 5 June, Friday

    Time Temperature Precipitation Wind Pressure Humidity
    00:00 +11°C° 0 mm 4 mps 746 mmHg 89%
    01:00 +11°C° 0 mm 4 mps 746 mmHg 90%
    02:00 +10°C° 0 mm 4 mps 746 mmHg 91%
    03:00 +10°C° 0 mm 5 mps 746 mmHg 91%
    04:00 +10°C° 0 mm 5 mps 746 mmHg 90%
    05:00 +10°C° 0 mm 6 mps 746 mmHg 90%
    06:00 +10°C° 0.8 mm 6 mps 746 mmHg 91%
    07:00 +11°C° 0.8 mm 6 mps 746 mmHg 92%
    08:00 +11°C° 0.8 mm 6 mps 747 mmHg 93%
    09:00 +13°C° 0.7 mm 6 mps 747 mmHg 92%
    10:00 +14°C° 0.7 mm 7 mps 747 mmHg 91%
    11:00 +15°C° 0.7 mm 7 mps 747 mmHg 90%
    12:00 +15°C° 0.3 mm 7 mps 747 mmHg 91%
    13:00 +15°C° 0.3 mm 7 mps 747 mmHg 92%
    14:00 +15°C° 0.3 mm 7 mps 747 mmHg 93%
    15:00 +16°C° 0.1 mm 6 mps 747 mmHg 93%
    16:00 +16°C° 0.1 mm 5 mps 747 mmHg 93%
    17:00 +17°C° 0.1 mm 4 mps 747 mmHg 93%
    18:00 +17°C° 0.2 mm 4 mps 747 mmHg 93%
    19:00 +17°C° 0.2 mm 3 mps 747 mmHg 94%
    20:00 +17°C° 0.2 mm 3 mps 747 mmHg 94%
    21:00 +17°C° 0.1 mm 3 mps 747 mmHg 93%
    22:00 +17°C° 0.1 mm 4 mps 748 mmHg 93%
    23:00 +15°C° 0.1 mm 4 mps 748 mmHg 92%

    Tomorrow, 6 June, Saturday

    Time Temperature Precipitation Wind Pressure Humidity
    00:00 +15°C° 0.2 mm 4 mps 748 mmHg 93%
    01:00 +14°C° 0.2 mm 4 mps 748 mmHg 94%
    02:00 +14°C° 0.2 mm 3 mps 749 mmHg 95%
    03:00 +14°C° 0 mm 3 mps 749 mmHg 95%
    04:00 +14°C° 0 mm 3 mps 749 mmHg 94%
    05:00 +14°C° 0 mm 4 mps 749 mmHg 94%
    06:00 +15°C° 0 mm 4 mps 749 mmHg 91%
    07:00 +16°C° 0 mm 5 mps 750 mmHg 89%
    08:00 +19°C° 0 mm 5 mps 750 mmHg 86%
    09:00 +20°C° 0 mm 5 mps 750 mmHg 83%
    10:00 +22°C° 0 mm 6 mps 750 mmHg 81%
    11:00 +23°C° 0 mm 6 mps 750 mmHg 79%
    12:00 +24°C° 0.1 mm 6 mps 750 mmHg 77%
    13:00 +24°C° 0.1 mm 6 mps 750 mmHg 75%
    14:00 +26°C° 0.1 mm 6 mps 750 mmHg 73%
    15:00 +26°C° 0 mm 5 mps 750 mmHg 75%
    16:00 +25°C° 0 mm 4 mps 750 mmHg 78%
    17:00 +25°C° 0 mm 3 mps 750 mmHg 80%
    18:00 +24°C° 0 mm 3 mps 751 mmHg 82%
    19:00 +21°C° 0 mm 3 mps 751 mmHg 83%
    20:00 +20°C° 0 mm 3 mps 751 mmHg 84%
    21:00 +19°C° 0 mm 3 mps 751 mmHg 82%
    22:00 +19°C° 0 mm 3 mps 752 mmHg 79%
    23:00 +18°C° 0 mm 3 mps 752 mmHg 77%

    Day after tomorrow, 7 June, Sunday

    Time Temperature Precipitation Wind Pressure Humidity
    00:00 +17°C° 0 mm 3 mps 752 mmHg 80%
    01:00 +17°C° 0 mm 3 mps 752 mmHg 84%
    02:00 +16°C° 0 mm 3 mps 752 mmHg 88%
    03:00 +16°C° 0 mm 3 mps 752 mmHg 88%
    04:00 +17°C° 0 mm 2 mps 753 mmHg 89%
    05:00 +17°C° 0 mm 2 mps 753 mmHg 90%
    06:00 +19°C° 0 mm 2 mps 753 mmHg 85%
    07:00 +20°C° 0 mm 3 mps 753 mmHg 81%
    08:00 +22°C° 0 mm 3 mps 753 mmHg 77%
    09:00 +24°C° 0 mm 3 mps 753 mmHg 72%
    10:00 +25°C° 0 mm 3 mps 754 mmHg 68%
    11:00 +26°C° 0 mm 3 mps 754 mmHg 63%
    12:00 +26°C° 0 mm 3 mps 754 mmHg 63%
    13:00 +27°C° 0 mm 3 mps 753 mmHg 62%
    14:00 +27°C° 0 mm 3 mps 753 mmHg 62%
    15:00 +27°C° 0 mm 3 mps 753 mmHg 65%
    16:00 +27°C° 0 mm 2 mps 753 mmHg 69%
    17:00 +27°C° 0 mm 2 mps 752 mmHg 73%
    18:00 +25°C° 0 mm 2 mps 753 mmHg 76%
    19:00 +24°C° 0 mm 2 mps 753 mmHg 79%
    20:00 +21°C° 0 mm 2 mps 753 mmHg 82%
    21:00 +20°C° 0 mm 2 mps 753 mmHg 84%
    22:00 +19°C° 0 mm 3 mps 753 mmHg 85%
    23:00 +19°C° 0 mm 3 mps 753 mmHg 87%

    8 June, Monday

    Time Temperature Precipitation Wind Pressure Humidity
    00:00 +18°C° 0 mm 3 mps 753 mmHg 87%
    01:00 +18°C° 0 mm 3 mps 753 mmHg 88%
    02:00 +17°C° 0 mm 3 mps 753 mmHg 88%
    03:00 +18°C° 0 mm 3 mps 753 mmHg 88%
    04:00 +18°C° 0 mm 3 mps 753 mmHg 88%
    05:00 +18°C° 0 mm 3 mps 753 mmHg 88%
    06:00 +20°C° 0 mm 3 mps 753 mmHg 85%
    07:00 +21°C° 0 mm 3 mps 753 mmHg 81%
    08:00 +23°C° 0 mm 4 mps 753 mmHg 77%
    09:00 +25°C° 0 mm 4 mps 753 mmHg 73%
    10:00 +26°C° 0 mm 4 mps 753 mmHg 69%
    11:00 +27°C° 0 mm 4 mps 753 mmHg 65%
    12:00 +28°C° 0 mm 4 mps 753 mmHg 64%
    13:00 +28°C° 0 mm 4 mps 752 mmHg 63%
    14:00 +28°C° 0 mm 4 mps 752 mmHg 62%
    15:00 +28°C° 0 mm 4 mps 752 mmHg 66%
    16:00 +28°C° 0 mm 3 mps 752 mmHg 70%
    17:00 +28°C° 0 mm 3 mps 752 mmHg 74%
    18:00 +26°C° 0 mm 3 mps 752 mmHg 78%
    19:00 +24°C° 0 mm 3 mps 752 mmHg 82%
    20:00 +22°C° 0 mm 3 mps 752 mmHg 87%
    21:00 +21°C° 0 mm 3 mps 752 mmHg 88%
    22:00 +20°C° 0 mm 3 mps 752 mmHg 89%
    23:00 +20°C° 0 mm 3 mps 752 mmHg 90%

    9 June, Tuesday

    Time Temperature Precipitation Wind Pressure Humidity
    00:00 +20°C° 0 mm 3 mps 752 mmHg 90%
    01:00 +19°C° 0 mm 3 mps 752 mmHg 90%
    02:00 +19°C° 0 mm 3 mps 752 mmHg 90%
    03:00 +19°C° 0 mm 3 mps 752 mmHg 90%
    04:00 +19°C° 0 mm 3 mps 752 mmHg 89%
    05:00 +19°C° 0 mm 3 mps 752 mmHg 89%
    06:00 +21°C° 0 mm 4 mps 752 mmHg 86%
    07:00 +22°C° 0 mm 4 mps 752 mmHg 82%
    08:00 +25°C° 0 mm 4 mps 752 mmHg 78%
    09:00 +26°C° 0 mm 4 mps 752 mmHg 74%
    10:00 +27°C° 0 mm 4 mps 752 mmHg 69%
    11:00 +29°C° 0 mm 4 mps 752 mmHg 65%
    12:00 +29°C° 0 mm 4 mps 752 mmHg 64%
    13:00 +29°C° 0 mm 4 mps 752 mmHg 63%
    14:00 +30°C° 0 mm 3 mps 751 mmHg 61%
    15:00 +29°C° 0.1 mm 3 mps 751 mmHg 65%
    16:00 +29°C° 0.1 mm 3 mps 751 mmHg 69%
    17:00 +29°C° 0.1 mm 2 mps 751 mmHg 73%
    18:00 +27°C° 0.1 mm 2 mps 751 mmHg 77%
    19:00 +25°C° 0.1 mm 2 mps 751 mmHg 80%
    20:00 +24°C° 0.1 mm 2 mps 751 mmHg 83%
    21:00 +23°C° 0 mm 2 mps 751 mmHg 85%
    22:00 +21°C° 0 mm 2 mps 751 mmHg 88%
    23:00 +21°C° 0 mm 2 mps 751 mmHg 90%

    10 June, Wednesday

    Time Temperature Precipitation Wind Pressure Humidity
    00:00 +20°C° 0 mm 2 mps 751 mmHg 91%
    01:00 +20°C° 0 mm 2 mps 751 mmHg 92%
    02:00 +20°C° 0 mm 2 mps 751 mmHg 93%
    03:00 +20°C° 0 mm 2 mps 751 mmHg 93%
    04:00 +20°C° 0 mm 2 mps 751 mmHg 93%
    05:00 +20°C° 0 mm 2 mps 751 mmHg 93%
    06:00 +22°C° 0 mm 3 mps 751 mmHg 90%
    07:00 +24°C° 0 mm 3 mps 752 mmHg 88%
    08:00 +25°C° 0 mm 3 mps 752 mmHg 85%
    09:00 +26°C° 1.2 mm 3 mps 752 mmHg 82%
    10:00 +27°C° 1.2 mm 3 mps 752 mmHg 79%
    11:00 +28°C° 1.2 mm 3 mps 752 mmHg 75%
    12:00 +28°C° 1.3 mm 3 mps 751 mmHg 74%
    13:00 +28°C° 1.3 mm 2 mps 751 mmHg 72%
    14:00 +28°C° 1.3 mm 2 mps 751 mmHg 71%
    15:00 +28°C° 0.6 mm 2 mps 751 mmHg 73%
    16:00 +28°C° 0.6 mm 2 mps 751 mmHg 75%
    17:00 +28°C° 0.6 mm 2 mps 751 mmHg 77%
    18:00 +26°C° 0.2 mm 2 mps 751 mmHg 81%
    19:00 +25°C° 0.2 mm 2 mps 751 mmHg 85%
    20:00 +22°C° 0.2 mm 3 mps 751 mmHg 90%
    21:00 +21°C° 0 mm 3 mps 751 mmHg 91%
    22:00 +21°C° 0 mm 3 mps 751 mmHg 92%
    23:00 +20°C° 0 mm 3 mps 751 mmHg 93%
    Show more